Home > Weather > Sonneberg > Past weeks

Flag for Germany Weather for the Past 2 Weeks in Sonneberg, Thuringia, Germany

Now
59 °F

Passing clouds.


Feels Like: 58 °F
Forecast: 34 / 50 °F
Wind: 8 mph from Northwest

Location: Hof Airport

Current Time: May 3, 2016 at 1:37:35 PM

Latest Report: May 3, 2016 at 12:50 PM


Visibility: N/A

Pressure: 30.04 "Hg

Humidity: 42%

Dew Point: 36 °F

Location of SonnebergLocation

Historic Weather in Sonneberg — Graph

°F

Sonneberg Temperature Yesterday

Maximum temperature yesterday: 59 °F (at 3:20 PM)
Minimum temperature yesterday: 41 °F (at 6:50 AM)
Average temperature yesterday: 54 °F

High & Low Weather Summary for the Past Weeks

 TemperatureHumidityPressure
High63 °F (Apr 30, 2:50 PM)93% (Apr 23, 4:50 PM)30.39 "Hg (Apr 23, 4:50 PM)
Low30 °F (Apr 25, 6:50 AM)20% (Apr 21, 2:20 PM)29.45 "Hg (Apr 26, 6:20 AM)
Average45 °F60%29.99 "Hg
* Reported Apr 18 11:20 AM — May 3 11:50 AM, Sonneberg, Weather by CustomWeather, © 2016

Note: Actual official high and low records may vary slightly from our data, if they occured in-between our weather recording intervals... More about our weather records

Advertising

Sonneberg Weather History for the Previous 24 Hours

Scroll right to see more
 ConditionsComfort  
Time TempWeatherWind HumidityBarometerVisibility
11:50 AM
Tue, May 3
59 °FPassing clouds.7 mph48%30.04 "HgN/A
11:20 AM57 °FPassing clouds.5 mph51%30.04 "HgN/A
10:50 AM55 °FPassing clouds.6 mph51%30.04 "HgN/A
10:20 AM54 °FPassing clouds.6 mph54%30.04 "HgN/A
9:50 AM52 °FPassing clouds.3 mph58%30.04 "HgN/A
9:20 AM52 °FSunny.5 mph58%30.04 "Hg10 mi
8:50 AM50 °FSunny.No wind67%30.04 "Hg10 mi
8:20 AM45 °FSunny.3 mph81%30.04 "Hg10 mi
7:50 AM45 °FSunny.No wind76%30.04 "Hg10 mi
7:20 AM41 °FSunny.No wind81%30.04 "Hg10 mi
6:50 AM39 °FSunny.No wind87%30.04 "Hg10 mi
7:50 PM
Mon, May 2
54 °FSunny.12 mph54%30.12 "Hg10 mi
6:50 PM55 °FSunny.10 mph47%30.12 "Hg10 mi
6:20 PM57 °FPassing clouds.14 mph44%30.12 "HgN/A
5:50 PM57 °FSunny.12 mph41%30.12 "Hg10 mi
5:20 PM59 °FSunny.12 mph39%30.12 "Hg10 mi
4:50 PM57 °FPassing clouds.10 mph39%30.15 "HgN/A
4:20 PM59 °FSunny.13 mph42%30.15 "Hg10 mi
3:50 PM59 °FSunny.13 mph42%30.15 "Hg10 mi
3:20 PM59 °FPassing clouds.12 mph45%30.15 "HgN/A
2:50 PM57 °FPassing clouds.10 mph48%30.18 "HgN/A
2:20 PM57 °FPassing clouds.13 mph48%30.18 "HgN/A
1:50 PM57 °FPassing clouds.13 mph44%30.18 "HgN/A
1:20 PM57 °FPassing clouds.13 mph48%30.18 "HgN/A
Weather by CustomWeather, © 2016

See weather overviewHow to use our weather pages